NEWPRT Weather Reports


Display with metric or nautical units.
time (UTC)temp
F
wind
direction
speed
MPH
gust
MPH
rain 1hr
in
rain 24hr
in
rain mn
in
humidity
%
barometer
mb
20260904092219 0 0 0.0 8.0 0.04 0.87 0.42 73
20260904091655 0 166 0.0 8.0 0.04 0.87 0.42 73
20260904091132 0 145 2.0 7.0 0.06 0.87 0.42 74
20260904090611 0 147 0.0 7.0 0.06 0.87 0.42 75
20260904090046 0 141 0.0 7.0 0.08 0.87 0.42 76
20260904085523 0 116 0.0 7.0 0.08 0.87 0.42 79
20260904085000 0 250 1.0 5.0 0.09 0.87 0.42 77
20260904084437 0 173 0.0 5.0 0.09 0.87 0.41 76
20260904083915 0 85 0.0 6.0 0.09 0.78 0.41 74
20260904083351 0 137 1.0 6.0 0.09 0.78 0.41 73
20260904082829 0 89 1.0 6.0 0.09 0.78 0.40 70
20260904082306 0 138 1.0 7.0 0.08 0.78 0.39 75
20260904081742 0 23 1.0 7.0 0.08 0.78 0.38 75
20260904081219 0 75 3.0 7.0 0.07 0.78 0.37 76
20260904080656 0 40 3.0 11.0 0.07 0.78 0.36 75
20260904080134 0 152 2.0 11.0 0.07 0.78 0.36 71
20260904075610 0 128 0.0 11.0 0.07 0.78 0.35 67
20260904075047 0 135 1.0 11.0 0.08 0.78 0.34 68
20260904074524 0 187 0.0 11.0 0.08 0.78 0.32 76
20260904074001 0 152 1.0 11.0 0.08 0.70 0.32 75
20260904073438 0 128 0.0 10.0 0.08 0.70 0.32 72
20260904072915 0 149 1.0 10.0 0.07 0.70 0.32 68
20260904072352 0 149 1.0 9.0 0.06 0.70 0.31 71
20260904071829 0 235 3.0 9.0 0.06 0.70 0.30 74
20260904071306 0 120 2.0 9.0 0.05 0.70 0.30 73
20260904070743 0 147 2.0 8.0 0.05 0.70 0.30 71
20260904070220 0 194 1.0 7.0 0.03 0.70 0.29 69
20260904065657 0 144 1.0 6.0 0.03 0.70 0.28 65
20260904065134 0 147 0.0 6.0 0.00 0.70 0.27 59
20260904064611 0 135 0.0 5.0 0.00 0.70 0.25 70
20260904064048 0 137 1.0 5.0 0.00 0.70 0.24 79
20260904063525 0 116 0.0 11.0 0.00 0.70 0.24 77
20260904063002 0 137 2.0 11.0 0.00 0.70 0.24 74
20260904062439 0 151 2.0 11.0 0.00 0.70 0.24 73
20260904061916 0 109 1.0 8.0 0.00 0.70 0.24 74
20260904061353 0 180 2.0 8.0 0.00 0.70 0.24 73
20260904060831 0 135 2.0 5.0 0.00 0.70 0.24 74
20260904060307 0 137 2.0 7.0 0.01 0.70 0.24 74
20260904055744 0 222 2.0 7.0 0.01 0.70 0.24 75
20260904055221 0 182 0.0 7.0 0.01 0.70 0.24 74
20260904054658 0 124 0.0 6.0 0.01 0.70 0.24 75
20260904054135 0 221 1.0 4.0 0.01 0.69 0.24 76
20260904053612 0 264 0.0 4.0 0.01 0.69 0.24 77
20260904053049 0 162 0.0 4.0 0.01 0.69 0.24 76
20260904052526 0 130 0.0 7.0 0.01 0.69 0.24 77
20260904052004 0 169 0.0 7.0 0.01 0.69 0.24 76
20260904051440 0 141 0.0 7.0 0.01 0.69 0.24 76
20260904050917 0 214 0.0 5.0 0.01 0.69 0.24 78
20260904050354 0 21 0.0 5.0 0.00 0.69 0.24 78
20260904045831 0 82 0.0 5.0 0.00 0.69 0.23 77
20260904045308 0 46 0.0 3.0 0.01 0.69 0.23 77
20260904044745 0 47 0.0 2.0 0.01 0.69 0.23 77
20260904044222 0 23 0.0 4.0 0.01 0.68 0.23 75
20260904043659 0 23 0.0 4.0 0.01 0.68 0.23 77
20260904043136 0 100 0.0 4.0 0.01 0.68 0.23 75
20260904042613 0 36 0.0 7.0 0.01 0.68 0.23 75
20260904042050 0 340 0.0 7.0 0.01 0.68 0.23 74
20260904041527 0 124 0.0 7.0 0.01 0.68 0.23 73
20260904041004 0 215 0.0 5.0 0.01 0.68 0.23 76
20260904040441 0 155 0.0 5.0 0.01 0.68 0.23 75
20260904035918 0 0 0.0 3.0 0.05 0.68 0.23 76
20260904035355 0 338 0.0 3.0 0.04 0.68 0.23 76
20260904034832 0 326 0.0 3.0 0.04 0.68 0.23 77
20260904034309 0 135 0.0 7.0 0.07 0.64 0.22 75
20260904033746 0 211 1.0 7.0 0.07 0.64 0.22 70
20260904033223 0 197 2.0 5.0 0.09 0.64 0.22 73
20260904032700 0 74 0.0 5.0 0.09 0.64 0.22 74
20260904032138 0 107 1.0 4.0 0.10 0.64 0.22 74
20260904031614 0 133 0.0 4.0 0.10 0.64 0.22 76
20260904031051 0 4 0.0 4.0 0.11 0.64 0.22 77
20260904030528 0 347 0.0 4.0 0.11 0.64 0.22 78
20260904030008 0 145 0.0 4.0 0.08 0.64 0.21 75
20260904025442 0 161 0.0 4.0 0.08 0.64 0.18 73
20260904024919 0 228 0.0 4.0 0.08 0.64 0.18 75
20260904024356 0 203 0.0 4.0 0.05 0.56 0.18 73
20260904023833 0 331 0.0 2.0 0.05 0.56 0.17 66
20260904023310 0 324 0.0 6.0 0.04 0.56 0.14 58
20260904022747 0 44 0.0 6.0 0.04 0.56 0.13 72
20260904022224 0 254 0.0 6.0 0.03 0.56 0.13 72
20260904021701 0 161 0.0 4.0 0.03 0.56 0.13 73
20260904021138 0 207 0.0 4.0 0.02 0.56 0.12 64
20260904020615 0 140 0.0 4.0 0.02 0.56 0.11 69
20260904020052 0 2 0.0 4.0 0.01 0.56 0.10 72
20260904015529 0 50 0.0 2.0 0.01 0.56 0.10 73
20260904015006 0 242 0.0 5.0 0.01 0.56 0.10 72
20260904014443 0 263 0.0 5.0 0.01 0.56 0.10 72
20260904013920 0 58 0.0 5.0 0.01 0.55 0.10 72
20260904013357 0 135 0.0 4.0 0.00 0.55 0.10 72
20260904012834 0 82 0.0 6.0 0.00 0.55 0.09 75
20260904012311 0 184 0.0 6.0 0.02 0.55 0.09 66
20260904011747 0 175 0.0 5.0 0.02 0.55 0.09 67
20260904011225 0 152 0.0 7.0 0.06 0.55 0.09 67
20260904010701 0 133 1.0 7.0 0.06 0.55 0.09 66
20260904010138 0 135 1.0 7.0 0.09 0.55 0.09 68
20260904005615 0 134 2.0 7.0 0.09 0.55 0.09 68
20260904005052 0 165 3.0 6.0 0.09 0.55 0.09 69
20260904004529 0 340 2.0 7.0 0.09 0.55 0.09 71
20260904004007 0 334 0.0 7.0 0.10 0.49 0.09 72
20260904003444 0 179 0.0 7.0 0.10 0.49 0.09 70
20260904002920 0 326 0.0 6.0 0.10 0.49 0.09 70
20260904002357 0 127 0.0 6.0 0.08 0.49 0.09 74
20260904001834 0 235 0.0 6.0 0.08 0.49 0.09 71
20260904001311 0 128 0.0 10.0 0.49 0.49 0.06 71
20260904000748 0 147 1.0 10.0 0.49 0.49 0.04 64
20260904000226 0 197 1.0 7.0 0.46 0.46 0.02 58
20260903235702 0 126 0.0 7.0 0.46 0.46 0.01 70
20260903235139 0 187 0.0 8.0 0.46 0.46 0.00 72
20260903234616 0 203 1.0 8.0 0.46 0.46 0.00 70
20260903234053 0 183 3.0 8.0 0.45 0.45 0.00 70
20260903233530 0 91 2.0 11.0 0.45 0.45 0.45 65
20260903233008 0 85 1.0 11.0 0.45 0.45 0.45 59
20260903232444 0 175 2.0 11.0 0.45 0.45 0.45 59
20260903231921 0 175 3.0 10.0 0.45 0.45 0.45 61
20260903231358 0 148 1.0 10.0 0.00 0.45 0.45 61
20260903230835 0 193 2.0 8.0 0.00 0.45 0.45 61
20260903225749 0 176 0.0 11.0 0.01 0.45 0.45 64
20260903225226 0 176 0.0 11.0 0.01 0.45 0.45 64
20260903224704 0 224 2.0 7.0 0.01 0.45 0.45 64
20260903224140 0 39 1.0 7.0 0.04 0.45 0.45 64
20260903223617 0 179 2.0 6.0 0.04 0.45 0.45 65
20260903223054 0 235 0.0 9.0 0.05 0.45 0.45 66
20260903222531 0 343 2.0 9.0 0.05 0.45 0.45 69
20260903222008 0 184 1.0 9.0 0.05 0.45 0.45 70
20260903221445 0 161 1.0 7.0 0.05 0.45 0.45 71
20260903220922 0 175 2.0 8.0 0.05 0.45 0.45 69
20260903220359 0 70 1.0 8.0 0.05 0.45 0.45 70
20260903215836 0 113 3.0 7.0 0.05 0.45 0.45 69
20260903215313 0 215 2.0 7.0 0.04 0.45 0.45 72
20260903214750 0 191 0.0 7.0 0.04 0.44 0.45 70
20260903214227 0 155 2.0 7.0 0.01 0.44 0.44 69
20260903213704 0 103 0.0 7.0 0.01 0.44 0.44 67
20260903213142 0 145 2.0 4.0 0.00 0.40 0.40 65
20260903212619 0 189 1.0 3.0 0.00 0.40 0.40 55
20260903212055 0 36 1.0 8.0 0.00 0.40 0.40 57
20260903211533 0 137 0.0 8.0 0.00 0.40 0.40 55
20260903211009 0 137 2.0 8.0 0.00 0.40 0.40 59
20260903210446 0 179 0.0 7.0 0.00 0.40 0.40 56
20260903205923 0 207 2.0 7.0 0.00 0.40 0.40 60
20260903205400 0 281 1.0 2.0 0.40 0.40 0.40 56
20260903204837 0 338 0.0 5.0 0.40 0.40 0.40 59
20260903204314 0 173 0.0 5.0 0.40 0.40 0.40 57
20260903203751 0 351 0.0 7.0 0.40 0.40 0.40 58
20260903203228 0 243 0.0 7.0 0.40 0.40 0.40 58
20260903202706 0 119 0.0 7.0 0.40 0.40 0.40 59
20260903202142 0 16 3.0 7.0 0.40 0.40 0.40 58
20260903201619 0 149 0.0 7.0 0.40 0.40 0.40 59
20260903201056 0 179 1.0 7.0 0.40 0.40 0.40 60
20260903200533 0 343 0.0 3.0 0.40 0.40 0.40 60
20260903200010 0 197 0.0 3.0 0.40 0.40 0.40 61
20260903195447 0 100 0.0 3.0 0.40 0.40 0.40 61
20260903194924 0 68 0.0 4.0 0.00 0.40 0.40 56
20260903194401 0 54 0.0 7.0 0.00 0.40 0.40 60
20260903193838 0 112 0.0 7.0 0.00 0.40 0.40 64
20260903193315 0 329 1.0 7.0 0.00 0.40 0.40 67
20260903192752 0 291 0.0 7.0 0.00 0.40 0.40 69
20260903192231 0 145 0.0 7.0 0.00 0.40 0.40 69
20260903191706 0 123 0.0 7.0 0.00 0.40 0.40 68
20260903191143 0 165 1.0 5.0 0.00 0.40 0.40 70
20260903190620 0 81 0.0 5.0 0.00 0.40 0.40 72
20260903190057 0 179 0.0 6.0 0.01 0.40 0.40 69
20260903185534 0 266 0.0 6.0 0.01 0.40 0.40 69
20260903185011 0 128 0.0 6.0 0.03 0.40 0.40 70
20260903184447 0 155 0.0 4.0 0.03 0.40 0.40 70
20260903183925 0 168 1.0 3.0 0.40 0.40 0.40 71
20260903183402 0 162 0.0 3.0 0.40 0.40 0.40 74
20260903182839 0 21 0.0 3.0 0.40 0.40 0.40 73
20260903182315 0 0 0.0 0.0 0.40 0.40 0.40 74
20260903181753 0 147 0.0 6.0 0.40 0.40 0.40 74
20260903181230 0 187 0.0 6.0 0.40 0.40 0.40 74
20260903180707 0 0 0.0 5.0 0.40 0.40 0.40 75
20260903180144 0 144 0.0 5.0 0.39 0.40 0.40 75
20260903175620 0 268 1.0 6.0 0.39 0.39 0.39 67
20260903175058 0 211 0.0 6.0 0.37 0.38 0.38 68
20260903174534 0 224 0.0 6.0 0.37 0.37 0.37 68
20260903172925 0 348 3.0 4.0 0.34 0.34 0.34 74
20260903172402 0 44 1.0 4.0 0.00 0.34 0.34 75
20260903171316 0 119 0.0 4.0 0.34 0.34 0.34 75
20260903170753 0 19 0.0 10.0 0.34 0.34 0.34 73
20260903170231 0 194 3.0 10.0 0.00 0.34 0.34 73
20260903165145 0 207 1.0 10.0 0.01 0.33 0.33 74
20260903164621 0 225 3.0 11.0 0.01 0.33 0.33 75
20260903164058 0 189 2.0 11.0 0.33 0.33 0.33 75
20260903163535 0 107 1.0 11.0 0.33 0.33 0.33 73
20260903163012 0 247 2.0 12.0 0.33 0.33 0.33 73
20260903162449 0 226 3.0 12.0 0.33 0.33 0.33 72
20260903161926 0 110 2.0 12.0 0.33 0.33 0.33 71
20260903161404 0 147 2.0 8.0 0.32 0.33 0.33 73
20260903160840 0 100 2.0 7.0 0.32 0.33 0.33 72
20260903160317 0 71 1.0 10.0 0.32 0.32 0.32 72
20260903155755 0 61 1.0 10.0 0.32 0.32 0.32 71
20260903155232 0 190 2.0 10.0 0.32 0.32 0.32 72
20260903154708 0 177 1.0 13.0 0.32 0.32 0.32 72
20260903154145 0 124 1.0 13.0 0.00 0.32 0.32 71
20260903153622 0 138 0.0 13.0 0.32 0.32 0.32 71
20260903153059 0 82 4.0 11.0 0.32 0.32 0.32 74
20260903152536 0 67 3.0 10.0 0.32 0.32 0.32 74
20260903152013 0 5 5.0 8.0 0.32 0.32 0.32 73
20260903151450 0 330 2.0 8.0 0.32 0.32 0.32 74
20260903151019 0 138 1.0 9.0 0.32 0.32 0.32 72
20260903150927 0 138 1.0 9.0 0.32 0.32 0.32 72
20260903150404 0 144 1.0 9.0 0.32 0.32 0.32 72
20260903145841 0 225 0.0 8.0 0.32 0.32 0.32 73
20260903145318 0 77 2.0 13.0 0.32 0.32 0.32 73
20260903144755 0 51 3.0 7.0 0.32 0.32 0.32 75
20260903144232 0 51 2.0 8.0 0.32 0.32 0.32 74
20260903143709 0 112 1.0 8.0 0.32 0.32 0.32 73
20260903143147 0 189 2.0 8.0 0.00 0.32 0.32 72
20260903142625 0 249 3.0 7.0 0.00 0.32 0.32 71
20260903142100 0 170 1.0 11.0 0.00 0.32 0.32 70
20260903141537 0 152 2.0 11.0 0.00 0.32 0.32 70
20260903141014 0 168 1.0 11.0 0.00 0.32 0.32 68
20260903140451 0 352 0.0 9.0 0.00 0.32 0.32 70
20260903135928 0 170 2.0 9.0 0.03 0.32 0.32 71
20260903135405 0 158 0.0 8.0 0.10 0.32 0.32 70
20260903134842 0 110 2.0 8.0 0.10 0.32 0.32 69
20260903134319 0 149 2.0 8.0 0.14 0.32 0.32 71
20260903133756 0 147 4.0 8.0 0.14 0.32 0.32 73
20260903133233 0 190 0.0 8.0 0.18 0.32 0.32 73
20260903132710 0 49 1.0 6.0 0.18 0.32 0.32 72
20260903132147 0 119 2.0 4.0 0.23 0.32 0.32 71
20260903131625 0 0 1.0 1.0 0.23 0.32 0.32 73
20260903131101 0 18 0.0 3.0 0.23 0.32 0.32 72
20260903130538 0 53 0.0 3.0 0.23 0.32 0.32 75
20260903130015 0 163 0.0 3.0 0.20 0.32 0.32 67
20260903125453 0 205 0.0 8.0 0.20 0.29 0.30 73
20260903124929 0 221 0.0 8.0 0.13 0.26 0.26 72
20260903124406 0 161 2.0 6.0 0.09 0.20 0.21 75
20260903123843 0 119 0.0 7.0 0.09 0.18 0.18 72
20260903123320 0 170 2.0 7.0 0.05 0.18 0.18 75
20260903122757 0 95 0.0 8.0 0.05 0.18 0.18 68
20260903122234 0 92 0.0 8.0 0.00 0.10 0.10 68
20260903121711 0 128 1.0 8.0 0.00 0.10 0.10 71
20260903121148 0 170 1.0 7.0 0.00 0.09 0.09 66
20260903120625 0 154 3.0 10.0 0.00 0.09 0.09 68
20260903115539 0 172 0.0 10.0 0.00 0.09 0.09 69
20260903115016 0 134 0.0 9.0 0.00 0.09 0.09 68
20260903114453 0 194 0.0 8.0 0.00 0.09 0.09 67
20260903113930 0 168 1.0 8.0 0.03 0.09 0.09 70
20260903113407 0 198 3.0 7.0 0.04 0.09 0.09 69
20260903112844 0 128 1.0 11.0 0.04 0.09 0.09 69
20260903112321 0 180 1.0 11.0 0.04 0.09 0.09 68
20260903111758 0 152 2.0 8.0 0.04 0.09 0.09 66
20260903111235 0 354 1.0 9.0 0.04 0.09 0.09 66
20260903110712 0 182 1.0 9.0 0.04 0.09 0.09 65
20260903110149 0 329 1.0 9.0 0.04 0.09 0.09 67
20260903105626 0 222 0.0 9.0 0.04 0.09 0.09 70
20260903105103 0 166 3.0 9.0 0.04 0.09 0.09 74
20260903104539 0 165 0.0 9.0 0.04 0.09 0.09 67
20260903104016 0 134 2.0 9.0 0.01 0.07 0.07 63
20260903103453 0 204 3.0 9.0 0.01 0.06 0.06 67
20260903102931 0 137 2.0 11.0 0.00 0.05 0.05 64
20260903102454 0 221 0.0 11.0 0.00 0.05 0.05 64
20260903102407 0 221 0.0 11.0 0.00 0.05 0.05 64
20260903101844 0 113 1.0 10.0 0.00 0.05 0.05 65
20260903101321 0 163 1.0 11.0 0.00 0.05 0.05 65
20260903100758 0 144 2.0 11.0 0.00 0.05 0.05 66
20260903100241 0 79 2.0 11.0 0.00 0.05 0.05 66
20260903095712 0 126 3.0 11.0 0.00 0.05 0.05 64
20260903095149 0 140 1.0 11.0 0.00 0.05 0.05 64
20260903094626 0 152 0.0 9.0 0.00 0.05 0.05 62
20260903094106 0 14 2.0 9.0 0.00 0.05 0.05 65
20260903093540 0 133 0.0 10.0 0.00 0.05 0.05 63
20260903093017 0 149 1.0 10.0 0.00 0.05 0.05 63
20260903092455 0 190 4.0 10.0 0.00 0.05 0.05 61